Weather History for George, South Africa

Change the Weather History Date:

Thursday, July 17, 2014

  Actual Average Record
Temperature  
Mean Temperature 58 °F -  
Max Temperature 69 °F 64 °F 86 °F (2005)
Min Temperature 46 °F 45 °F 37 °F (1996)
Degree Days  
Heating Degree Days 8    
Growing Degree Days 8 (Base 50)    
Moisture  
Dew Point 46 °F    
Average Humidity 71    
Maximum Humidity 94    
Minimum Humidity 27    
Precipitation  
Precipitation 0.08 in - - ()
Sea Level Pressure  
Sea Level Pressure 29.74 in    
Wind  
Wind Speed 9 mph ()    
Max Wind Speed 30 mph    
Max Gust Speed 39 mph    
Visibility 5.5 miles    
Events Fog , Rain    
Averages and records for this station are not official NWS values.
T = Trace of Precipitation, MM = Missing Value Source: Averaged Metar Reports

Daily Weather History Graph

Daily Weather History Graph

Search for Another Location

Airport:

Trip Planner

Search our weather history database for the weather conditions in past years. The results will help you decide how hot, cold, wet, or windy it might be!

Date:

Astronomy

Jul. 17, 2014 Rise Set
Actual Time 7:32 AM SAST 5:40 PM SAST
Civil Twilight 7:05 AM SAST 6:07 PM SAST
Nautical Twilight 6:34 AM SAST 6:38 PM SAST
Astronomical Twilight 6:04 AM SAST 7:08 PM SAST
Moon 11:37 PM SAST (7/17) 10:48 AM SAST (7/17)
Length of Visible Light 11h 02m
Length of Day
10h 07m
Waning Gibbous, 68% of the Moon is Illuminated
Jul 17
Waning Gibbous
Jul 19
Last Quarter
Jul 27
New
Aug 4
First Quarter
Aug 10
Full

Hourly Weather History & Observations

Time (SAST) Temp. Dew Point Humidity Pressure Visibility Wind Dir Wind Speed Gust Speed Precip Events Conditions
12:00 AM 50.0 °F 48.2 °F 94% 29.77 in - North 3.5 mph - N/A   Unknown
1:00 AM 48.2 °F 46.4 °F 93% 29.74 in 0.3 mi SSE 5.8 mph - N/A   Unknown
2:00 AM 50 °F 48 °F 92% 29.76 in 1 mi SSW 3.5 mph - -  
2:00 AM 50.0 °F 48.2 °F 94% 29.74 in 0.2 mi Variable 2.3 mph - N/A   Unknown
3:00 AM 51.8 °F 50.0 °F 94% 29.74 in 0.1 mi Variable 2.3 mph - N/A   Unknown
5:00 AM 52 °F 50 °F 92% 29.73 in 0 mi NNW 5.8 mph - - Fog Heavy Fog
5:00 AM 51.8 °F 50.0 °F 94% 29.71 in 0.2 mi NW 5.8 mph - N/A Fog Fog
6:00 AM 50.0 °F 48.2 °F 94% 29.71 in 0.4 mi North 3.5 mph - N/A Fog Fog
7:00 AM 48.2 °F 44.6 °F 87% 29.71 in 6.2 mi NNW 3.5 mph - N/A   Partly Cloudy
8:00 AM 47 °F 43 °F 80% 29.72 in 12 mi NNE 2.3 mph - -   Scattered Clouds
8:00 AM 46.4 °F 42.8 °F 87% 29.71 in 6.2 mi Variable 2.3 mph - N/A   Partly Cloudy
9:00 AM 50.0 °F 46.4 °F 87% 29.71 in - NW 3.5 mph - N/A   Clear
10:00 AM 59.0 °F 39.2 °F 48% 29.71 in - WNW 17.3 mph - N/A   Clear
11:00 AM 64 °F 38 °F 27% 29.72 in 12 mi WNW 20.7 mph - -   Scattered Clouds
11:00 AM 64.4 °F 37.4 °F 37% 29.71 in 6.2 mi WNW 21.9 mph - N/A   Partly Cloudy
12:00 PM 66.2 °F 41.0 °F 40% 29.68 in 6.2 mi NW 23.0 mph - N/A   Partly Cloudy
1:00 PM 69.8 °F 42.8 °F 38% 29.65 in 6.2 mi NNW 27.6 mph 39.1 mph N/A   Scattered Clouds
2:00 PM 67 °F 44 °F 33% 29.64 in 12 mi NW 20.7 mph - -   Overcast
2:00 PM 68.0 °F 44.6 °F 43% 29.65 in 6.2 mi NW 19.6 mph - N/A   Scattered Clouds
3:00 PM 68.0 °F 44.6 °F 43% 29.65 in 6.2 mi WNW 24.2 mph - N/A   Scattered Clouds
4:00 PM 66.2 °F 42.8 °F 43% 29.68 in 6.2 mi NW 29.9 mph - N/A   Scattered Clouds
5:00 PM 65 °F 45 °F 38% 29.71 in 12 mi WNW 21.9 mph - -   Mostly Cloudy
5:00 PM 64.4 °F 44.6 °F 49% 29.71 in 6.2 mi WNW 21.9 mph - N/A   Mostly Cloudy
6:00 PM 53.6 °F 51.8 °F 94% 29.77 in 3.1 mi West 24.2 mph - N/A Rain Light Rain
7:00 PM 53.6 °F 50.0 °F 88% 29.83 in 3.1 mi West 11.5 mph - N/A Rain Light Rain
8:00 PM 53 °F 50 °F 84% 29.86 in 12 mi West 12.7 mph - - Rain Light Drizzle
8:00 PM 53.6 °F 50.0 °F 88% 29.86 in 6.2 mi West 12.7 mph - N/A   Mostly Cloudy
9:00 PM 51.8 °F 48.2 °F 88% 29.86 in 6.2 mi West 15.0 mph - N/A   Mostly Cloudy
10:00 PM 51.8 °F 46.4 °F 82% 29.89 in 6.2 mi WNW 13.8 mph - N/A   Mostly Cloudy
11:00 PM 51.8 °F 46.4 °F 82% 29.92 in 6.2 mi West 11.5 mph - N/A   Mostly Cloudy